Retour au catalogue

STARLINK-35338

ActifCommunicationsVLEO
NORAD 66250·PAYLOAD·🇺🇸 United States

Lancé Oct 29, 2025 depuis Cape Canaveral Space Force Station

Loading…

Prochains Passages (prochaines 24 heures)

TLE

FraisSource: CelesTrak SupGP

Époque: Sep 15, 2026, 04:01 UTC

1 66250C 25245S   26258.16784722  .00015204  00000+0  48885-3 0  2582
2 66250  53.1576 122.2528 0001421  81.4947  79.7793 15.31698797    10

Suivez STARLINK-35338 en temps réel avec AllMySat

Download on the App Store